Regional Weather Roundup
Issued by NWS

Home | Current Version | Previous Version | Text Only | Print | Product List | Glossary Off
Versions: 1 2 3 4 5 6 7 8 9 10 11 12 13 14 15 16 17 18 19 20 21 22 23 24 25 26 27 28 29 30 31 32 33 34 35 36 37 38 39 40 41 42 43 44 45 46 47 48 49 50

000
ASUS43 KLMK 220510
RWRKY
KENTUCKY REGIONAL WEATHER ROUNDUP
NATIONAL WEATHER SERVICE LOUISVILLE KY
100 AM EDT FRI AUG 22 2014

NOTE "FAIR" INDICATES FEW OR NO CLOUDS BELOW 12,000 FEET
WITH NO SIGNIFICANT WEATHER AND/OR OBSTRUCTIONS TO VISIBILITY.

KYZ001>023-026-027-061>063-070>075-220600-
WESTERN AND SOUTH CENTRAL KENTUCKY

CITY           SKY/WX    TMP DP  RH WIND       PRES   REMARKS
PADUCAH        CLEAR     81  73  76 SW5       30.04R
HENDERSON      CLEAR     75  70  83 SW3       30.02S
OWENSBORO      PTCLDY    77  72  84 CALM      30.04R
HOPKINSVILLE   CLEAR     78  76  95 SW3       30.07R
BOWLING GREEN  PTCLDY    80  71  74 SW6       30.08R
GLASGOW        CLEAR     75  72  89 CALM      30.08R
$$

KYZ024-025-028>034-038-045-046-053-220600-
NORTH CENTRAL KENTUCKY

CITY           SKY/WX    TMP DP  RH WIND       PRES   REMARKS
LOUISVILLE/SDF CLOUDY    81  72  74 SW6       30.05R
LOUISVILLE/LOU MOCLDY    80  72  76 CALM      30.05R
FORT KNOX      PTCLDY    76  76 100 S2        30.05R
$$

KYZ035>037-039>044-047>052-055>060-089>105-220600-
NORTHEAST KENTUCKY

CITY           SKY/WX    TMP DP  RH WIND       PRES   REMARKS
LEXINGTON      CLOUDY    78  72  81 S7        30.08R
COVINGTON      HVY RAIN  73  68  83 N18G26    30.07R
FRANKFORT      CLOUDY    75  71  87 SW5       30.05S
$$

KYZ054-064>069-076>088-106>120-220600-
SOUTHEAST KENTUCKY

CITY           SKY/WX    TMP DP  RH WIND       PRES   REMARKS
JACKSON        MOCLDY    71  68  90 CALM      30.11S
LONDON         PTCLDY    75  70  84 S3        30.12R
SOMERSET       CLOUDY    72  72 100 CALM      30.11S
MIDDLESBORO    CLEAR     71  70  98 CALM      30.13S
MONTICELLO     PTCLDY    74  72  93 CALM      30.11S
$$




USA.gov is the U.S. government's official web portal to all federal, state and local government web resources and services.